Weather History for Douglas, WY

Change the Weather History Date:

Sunday, September 1, 2013

  Actual Average Record
Temperature  
Mean Temperature 70 °F 65 °F  
Max Temperature 88 °F 82 °F 93 °F (2012)
Min Temperature 52 °F 48 °F 39 °F (2006)
Degree Days  
Heating Degree Days 0 3  
Month to date heating degree days 0 3  
Since 1 July heating degree days 0 44  
Cooling Degree Days 5 3  
Month to date cooling degree days 5 3  
Year to date cooling degree days 638 461  
Growing Degree Days 20 (Base 50)    
Moisture  
Dew Point 44 °F    
Average Humidity 42    
Maximum Humidity 59    
Minimum Humidity 24    
Precipitation  
Precipitation 0.00 in 0.03 in 0.12 in (2008)
Month to date precipitation 0.00 0.03  
Year to date precipitation 5.94 10.08  
Sea Level Pressure  
Sea Level Pressure 30.01 in    
Wind  
Wind Speed 10 mph (SE)    
Max Wind Speed 18 mph    
Max Gust Speed 24 mph    
Visibility 10 miles    
Events      
T = Trace of Precipitation, MM = Missing Value Source: NWS Daily Summary

Daily Weather History Graph

Daily Weather History Graph

Search for Another Location

Airport:

Trip Planner

Search our weather history database for the weather conditions in past years. The results will help you decide how hot, cold, wet, or windy it might be!

Date:

Astronomy

Sep. 01, 2013 Rise Set
Actual Time 6:26 AM MDT 7:35 PM MDT
Civil Twilight 5:57 AM MDT 8:04 PM MDT
Nautical Twilight 5:22 AM MDT 8:39 PM MDT
Astronomical Twilight 4:45 AM MDT 9:15 PM MDT
Moon 2:47 AM MDT 5:17 PM MDT
Length of Visible Light 14h 07m
Length of Day
13h 08m
Waning Crescent, 13% of the Moon is Illuminated
Sep 1
Waning Crescent
Sep 5
New
Sep 12
First Quarter
Sep 19
Full
Sep 26
Last Quarter

Hourly Weather History & Observations

Time (MDT) Temp. Dew Point Humidity Pressure Visibility Wind Dir Wind Speed Gust Speed Precip Events Conditions
12:53 AM 57.9 °F 37.9 °F 47% 30.05 in 10.0 mi Calm Calm - N/A   Clear
1:53 AM 55.9 °F 39.0 °F 53% 30.05 in 10.0 mi Calm Calm - N/A   Clear
2:53 AM 55.0 °F 39.0 °F 55% 30.05 in 10.0 mi East 6.9 mph - N/A   Clear
3:53 AM 53.1 °F 39.0 °F 59% 30.05 in 10.0 mi SE 4.6 mph - N/A   Clear
4:53 AM 54.0 °F 39.9 °F 59% 30.05 in 10.0 mi East 6.9 mph - N/A   Clear
5:53 AM 55.0 °F 39.9 °F 57% 30.05 in 10.0 mi SE 8.1 mph - N/A   Clear
6:53 AM 55.0 °F 39.9 °F 57% 30.06 in 10.0 mi ESE 9.2 mph - N/A   Clear
7:53 AM 62.1 °F 39.9 °F 44% 30.06 in 10.0 mi SE 8.1 mph - N/A   Clear
8:53 AM 68.0 °F 42.1 °F 39% 30.05 in 10.0 mi SE 15.0 mph - N/A   Clear
9:53 AM 73.0 °F 44.1 °F 35% 30.05 in 10.0 mi SE 13.8 mph 21.9 mph N/A   Clear
10:53 AM 77.0 °F 45.0 °F 32% 30.05 in 10.0 mi SSE 15.0 mph - N/A   Clear
11:53 AM 80.1 °F 46.0 °F 30% 30.04 in 10.0 mi SSE 13.8 mph 19.6 mph N/A   Clear
12:53 PM 82.9 °F 46.9 °F 28% 30.01 in 10.0 mi SSE 12.7 mph - N/A   Clear
1:53 PM 84.9 °F 48.0 °F 28% 29.99 in 10.0 mi SE 11.5 mph 19.6 mph N/A   Clear
2:53 PM 84.9 °F 46.0 °F 26% 29.97 in 10.0 mi South 9.2 mph 19.6 mph N/A   Clear
3:53 PM 87.1 °F 46.0 °F 24% 29.95 in 10.0 mi SSE 10.4 mph 19.6 mph N/A   Clear
4:53 PM 87.1 °F 46.9 °F 25% 29.94 in 10.0 mi SE 12.7 mph - N/A   Clear
5:53 PM 84.9 °F 46.9 °F 27% 29.94 in 10.0 mi SE 11.5 mph 19.6 mph N/A   Clear
6:53 PM 82.9 °F 48.0 °F 29% 29.94 in 10.0 mi SE 13.8 mph - N/A   Clear
7:53 PM 78.1 °F 46.9 °F 33% 29.95 in 10.0 mi ESE 11.5 mph - N/A   Clear
8:53 PM 75.0 °F 46.0 °F 36% 29.96 in 10.0 mi ESE 10.4 mph - N/A   Clear
9:53 PM 73.0 °F 45.0 °F 37% 29.96 in 10.0 mi ESE 11.5 mph - N/A   Clear
10:53 PM 68.0 °F 44.1 °F 42% 29.97 in 10.0 mi SE 5.8 mph - N/A   Clear
11:53 PM 66.0 °F 45.0 °F 47% 29.96 in 10.0 mi ESE 9.2 mph - N/A   Clear